Location: Ciserano
(45.5833°N, 9.6000°E)
Time: 05:28:29
(UTC+00:00)

Cosmos 1295 Rocket - Pass Details

Date: 29 November 2020
Orbit: 945 x 993 km, 82.9° (Epoch: 24 January)

Event Time Altitude Azimuth Distance (km) Brightness Sun altitude
Rises 05:39:41 0° 196° (SSW) 3,603 7.5 -10.3°
Reaches altitude 10° 05:42:11 10° 199° (SSW) 2,660 6.8 -9.9°
Maximum altitude 05:48:12 65° 281° (W) 1,039 4.4 -8.9°
Drops below altitude 10° 05:54:17 10° 3° (N) 2,678 6.6 -7.9°
Sets 05:56:49 0° 7° (N) 3,631 7.3 -7.5°
